| time (UTC) | temp C | wind direction | speed KPH | gust KPH | rain 1hr cm | rain 24hr cm | rain mn cm | humidity % | barometer mb |
| 20260504081600 | 3 | 0 | 0.0 | 0.0 | 0.00 | 0.00 | 0.00 | 92 | 1015.6 |
| 20260504060106 | 3 | 0 | 0.0 | 0.0 | 0.00 | 0.00 | 0.00 | 90 | 1015.4 |
| 20260504050103 | 3 | 0 | 0.0 | 0.0 | 0.00 | 0.00 | 0.00 | 89 | 1015.5 |
| 20260504044551 | 3 | 0 | 0.0 | 0.0 | 0.00 | 0.00 | 0.00 | 88 | 1015.6 |
| 20260504043101 | 4 | 0 | 0.0 | 0.0 | 0.00 | 0.00 | 0.00 | 87 | 1015.4 |
| 20260504041547 | 4 | 0 | 0.0 | 0.0 | 0.00 | 0.00 | 0.00 | 86 | 1015.3 |
| 20260504040050 | 4 | 0 | 0.0 | 1.6 | 0.00 | 0.00 | 0.00 | 85 | 1015.3 |
| 20260504034546 | 5 | 0 | 0.0 | 0.0 | 0.00 | 0.00 | 0.00 | 84 | 1015.2 |
| 20260504033051 | 5 | 0 | 0.0 | 0.0 | 0.00 | 0.00 | 0.00 | 84 | 1015.0 |
| 20260504031556 | 5 | 0 | 0.0 | 0.0 | 0.00 | 0.00 | 0.00 | 83 | 1015.0 |
| 20260504030051 | 5 | 0 | 0.0 | 0.0 | 0.00 | 0.00 | 0.00 | 82 | 1015.0 |
| 20260504024548 | 6 | 0 | 0.0 | 0.0 | 0.00 | 0.00 | 0.00 | 80 | 1015.0 |
| 20260504023053 | 6 | 0 | 0.0 | 0.0 | 0.00 | 0.00 | 0.00 | 79 | 1015.0 |
| 20260504021546 | 6 | 0 | 0.0 | 0.0 | 0.00 | 0.00 | 0.00 | 77 | 1015.0 |
| 20260504020047 | 7 | 0 | 0.0 | 0.0 | 0.00 | 0.00 | 0.00 | 75 | 1015.1 |
| 20260504014558 | 7 | 0 | 0.0 | 0.0 | 0.00 | 0.00 | 0.00 | 72 | 1014.9 |
| 20260504013053 | 8 | 0 | 0.0 | 0.0 | 0.00 | 0.00 | 0.00 | 71 | 1014.9 |
| 20260504011549 | 8 | 0 | 0.0 | 0.0 | 0.00 | 0.00 | 0.00 | 69 | 1014.8 |
| 20260504010104 | 9 | 0 | 0.0 | 0.0 | 0.00 | 0.00 | 0.00 | 66 | 1014.5 |
| 20260504004545 | 10 | 0 | 0.0 | 0.0 | 0.00 | 0.00 | 0.00 | 64 | 1014.5 |
| 20260504003051 | 11 | 0 | 0.0 | 0.0 | 0.00 | 0.00 | 0.00 | 58 | 1014.3 |
| 20260504001558 | 12 | 0 | 0.0 | 1.6 | 0.00 | 0.00 | 0.00 | 58 | 1013.9 |
| 20260504000050 | 13 | 0 | 0.0 | 0.0 | 0.00 | 0.00 | 0.00 | 45 | 1013.9 |
| 20260503234551 | 13 | 0 | 0.0 | 3.2 | 0.00 | 0.00 | 0.00 | 41 | 1013.7 |
| 20260503233053 | 13 | 0 | 3.2 | 16.1 | 0.00 | 0.00 | 0.00 | 41 | 1013.7 |
| 20260503231552 | 14 | 0 | 1.6 | 12.9 | 0.00 | 0.00 | 0.00 | 40 | 1013.6 |
| 20260503230055 | 14 | 294 | 3.2 | 27.4 | 0.00 | 0.00 | 0.00 | 37 | 1013.5 |
| 20260503224552 | 15 | 0 | 3.2 | 14.5 | 0.00 | 0.00 | 0.00 | 38 | 1013.5 |
| 20260503223051 | 15 | 314 | 3.2 | 17.7 | 0.00 | 0.00 | 0.00 | 38 | 1013.5 |
| 20260503221559 | 15 | 285 | 6.4 | 22.5 | 0.00 | 0.00 | 0.00 | 37 | 1013.4 |
| 20260503220105 | 15 | 280 | 6.4 | 20.9 | 0.00 | 0.00 | 0.00 | 39 | 1013.6 |
| 20260503214554 | 15 | 319 | 4.8 | 17.7 | 0.00 | 0.00 | 0.00 | 37 | 1013.4 |
| 20260503213053 | 15 | 242 | 4.8 | 19.3 | 0.00 | 0.00 | 0.00 | 36 | 1013.5 |
| 20260503211552 | 15 | 313 | 9.7 | 25.7 | 0.00 | 0.00 | 0.00 | 34 | 1013.4 |
| 20260503210056 | 15 | 228 | 6.4 | 19.3 | 0.00 | 0.00 | 0.00 | 35 | 1013.5 |
| 20260503204606 | 15 | 340 | 8.0 | 19.3 | 0.00 | 0.00 | 0.00 | 38 | 1013.5 |
| 20260503203100 | 14 | 234 | 8.0 | 22.5 | 0.00 | 0.00 | 0.00 | 37 | 1013.6 |
| 20260503201554 | 14 | 225 | 4.8 | 17.7 | 0.00 | 0.00 | 0.00 | 40 | 1013.6 |
| 20260503200051 | 13 | 304 | 4.8 | 30.6 | 0.00 | 0.00 | 0.00 | 40 | 1013.7 |
| 20260503194607 | 13 | 263 | 8.0 | 37.0 | 0.00 | 0.00 | 0.00 | 40 | 1013.9 |
| 20260503193051 | 13 | 339 | 4.8 | 22.5 | 0.00 | 0.00 | 0.00 | 42 | 1014.1 |
| 20260503191601 | 13 | 213 | 6.4 | 19.3 | 0.00 | 0.00 | 0.00 | 41 | 1014.2 |
| 20260503190059 | 13 | 196 | 9.7 | 20.9 | 0.00 | 0.00 | 0.00 | 41 | 1014.5 |
| 20260503184551 | 13 | 316 | 6.4 | 24.1 | 0.00 | 0.00 | 0.00 | 42 | 1014.3 |
| 20260503183101 | 13 | 290 | 4.8 | 25.7 | 0.00 | 0.00 | 0.00 | 42 | 1014.6 |
| 20260503181550 | 12 | 313 | 9.7 | 22.5 | 0.00 | 0.00 | 0.00 | 41 | 1014.7 |
| 20260503174551 | 12 | 311 | 14.5 | 25.7 | 0.00 | 0.00 | 0.00 | 40 | 1014.6 |
| 20260503173136 | 12 | 322 | 8.0 | 25.7 | 0.00 | 0.00 | 0.00 | 40 | 1014.7 |
| 20260503171550 | 12 | 310 | 11.3 | 27.4 | 0.00 | 0.00 | 0.00 | 42 | 1015.0 |